Location: Estes Par
(40.3770°N, 105.5210°W)
Time: 20:59:08
(UTC-06:00)

Envisat - Pass Details

Date: 13 October 2017
Orbit: 764 x 766 km, 98.2° (Epoch: 19 April)

Event Time Altitude Azimuth Distance (km) Brightness Sun altitude
Exits shadow 22:17:43 12° 294° (WNW) 2,155 5.9 -43.6°
Drops below altitude 10° 22:18:31 10° 303° (WNW) 2,304 6.1 -43.7°
Sets 22:21:55 0° 327° (NNW) 3,236 6.9 -44.3°
